Погода Добеле

Погода Добеле : погода сейчас, прогноз погоды и архив. Всё, что Вы хотите узнать о погоде Добеле!

Поиск расширенной информации на нашем сайте:

Другие новости

Новости СМИ2

Главная страница сайта

Новости сайта

03.07.2017

Напоминаем, что на нашем специализированном сайте Метеоцентр.Азия вы можете получить высокодетализированные автоматические прогнозы погоды по пунктам России, СНГ и мира в авиационном формате (включающие направление и скорость ветра, видимость, явления погоды, количество и форму облачности, нижнюю и верхнюю границу облачности).


Погода Добеле - сегодня

Время (UTC), дата Ветер
(°,м/с) 
Видим.   Явления Облачность Т
(°С)
Тd
(°С)
f(%) Тe
(°С)
Pmin
(гПа)
dP
(гПа)
Po
(мм)
O2
(г/м3)
Тmin Tmax R s Состояние
почвы
09 18.07.17 230 (ЮЗ) 5-10  20000 м  {ливн. осадки}  8/4 600 м средняя 
[Cu med, cong|Ac trans]
+18.3 +12 67 +22  1014.9  -0.1  757  283           
12 18.07.17 260 (З) 5{12}  20000 м  {ливн. осадки}  4/4 600 м 
[Cu med, cong]
+19.6 +10.2 55 +21  1015.4  0.5  758  283           
15 18.07.17 260 (З) 6{12}  20000 м    8/8 600 м 
[Cu med, cong]
+19.1 +10.3 57 +20  1015.9  0.5  758  283           
18 18.07.17 260 (З) 3{12}  20000 м    3/3 1000 м 
[Cu med, cong]
+16.2 +9.8 66 +18  1016.4  0.5  758  286    +20  0.0     
21 18.07.17 270 (З) 10 км    3/3 600 м 
[Sc]
+12.3 +10.1 86 +13  1017.2  0.7  759  290           
00 19.07.17 260 (З) 20000 м    1/1 600 м 
[Sc]
+11 +10.2 95 +12  1017.6  0.4  759  292           
03 19.07.17 260 (З) 8000 м  дымка  8/8 500 м 
[Sc]
+11.1 100 1017.8  0.2  759  303           
06 19.07.17 200 (Ю) 20000 м    3/3 600 м верхняя 
[Sc|Ci fib]
+15.7 +12.7 82 +21  1018.1  0.3  760  286  +10         
09 19.07.17 220 (ЮЗ) 20000 м    8/5 600 м средняя 
[Cu med, cong|Ac trans]
+19.5 +12.4 64 +24  1018  760  283           
12 19.07.17 280 (З) 1{10}  20000 м  в посл. час ливневой дождь  9/6 600 м средняя 
[Sc|Ac trans]
+16.5 +13.3 81 +24  1017.7  -0.3  759  286           
15 19.07.17 240 (ЮЗ) 20000 м  {ливн. осадки}  9/5 300 м средняя 
[Sc|Ac trans]
+17.1 +11.9 71 +22  1016.7  -1  759  285           
18 19.07.17 060 (СВ) 20000 м  {ливн. осадки}  8/4 600 м средняя 
[Cu med, cong|Ac trans]
+16.7 +13.2 80 +24  1016.5  -0.2  758  284    +21.8  0.3     
21 19.07.17 330 (СЗ) 10 км    6/0 средняя 
[Ac trans]
+11.7 +10.7 94 +13  1016.9  0.3  759  291           
00 20.07.17 310 (СЗ) 10 км    3/0 средняя 
[Ac trans]
+10.1 +8.3 89 +10  1017.1  0.1  759  293           
03 20.07.17 290 (З) 20000 м    1/1 600 м 
[Cu med, cong]
+8.8 +7.5 92 +9  1016.6  -0.5  758  294           
06 20.07.17 340 (С) 20000 м    4/1 600 м средняя, верхняя 
[Sc|Ac trans|Ci fib]
+15.6 +10.1 70 +17  1016.6  0.1  758  286  +8.3         
09 20.07.17 020 (С) 20000 м    4/4 1000 м 
[Cu med, cong]
+17.9 +8.9 56 +18  1015.6  -0.9  758  284           
12 20.07.17 350 (С) 20000 м    4/3 1000 м средняя 
[Cu med, cong|Ac trans]
+19.4 +7.1 45 +20  1015.1  -0.5  758  284           
15 20.07.17 040 (СВ) 20000 м    3/3 1000 м средняя 
[Cu med, cong|Ac trans]
+19 +9.1 53 +20  1014.7  -0.4  757  283           
18 20.07.17 040 (СВ) 20000 м    3/1 600 м средняя 
[Cu med, cong|Ac trans]
+14.7 +10 73 +16  1015  0.2  757  287    +20.1       
21 20.07.17 030 (СВ) 10 км    3/0 средняя 
[Ac trans]
+9.8 +8 89 +10  1015.4  0.3  758  293           
00 21.07.17 310 (СЗ) н/о    н/о 
+8 +6.9 93 +9  1016.3  0.9  758  296           
03 21.07.17 тихо ()   20000 м    1/0 средняя 
[Ac trans]
+6.9 +6.2 95 +7  1016.1  -0.2  758  296           
06 21.07.17 040 (СВ) 20000 м    4/3 600 м средняя, верхняя 
[Cu med, cong|Ac trans|Ci fib]
+16.7 +11.3 70 +21  1016.7  0.8  759  285  +6.5         
09 21.07.17 110 (В) 20000 м    8/4 600 м средняя, верхняя 
[Cu med, cong|Ac trans|Ci fib]
+19.3 +10.2 56 +21  1017.1  0.4  759  283           
Время (UTC), дата Ветер
(°,м/с) 
Видим.   Явления Облачность Т
(°С)
Тd
(°С)
f(%) Тe
(°С)
Pmin
(гПа)
dP
(гПа)
Po
(мм)
O2
(г/м3)
Тmin Tmax R s Состояние
почвы

Для получения пояснительной информации подведите курсор к названию столбца.

ПОГОДА Добеле - архив

Всё, что Вы хотите узнать о погоде Добеле - удобно и подробно!

Выберите нужную дату (начиная с 1 января 2015* года) и нажмите кнопку "Найти".
Будут отображены архивные сводки погоды по пункту Добеле, начиная с указанной даты.


Отображать данные в формате CSV (для использования в таблицах Excel)


Внимание! Наш архив погоды предназначен исключительно для личного некоммерческого использования в познавательных целях. Если Вам необходимы официальные справки о состоянии погоды (для производственных, юридических, коммерческих и т.п. целей), обращайтесь в органы Росгидромета.

*Примечание: данная дата относится к архиву по метеостанциям СССР (Россия, СНГ, Балтия).
Архив по метеостанциям Зарубежной Европы и Азии (кроме Китая) хранится 10 дней, по другим регионам земного шара (Китай, Африка, Америка, Австралия, Океания) - 1 день.

Добеле - район местоположения метеостанции


Название, широта, долгота, высота метеостанции:
Добеле 56.6°ш. 23.3°д. 44 м над ур. моря [Латвия]

Дополнительная информация

В oтличие oт бoльшинства пoгoдных сайтoв мы публикуем пoдрoбную метеoинфoрмацию в детальнoм прoфессиoнальнoм фoрмате.

Характеристики температуры и влажнoсти вoздуха измеряются на высoте 2 м в тени вдали oт зданий и деревьев.
Скoрoсть ветра измеряется на высoте 10 м (на урoвне рoста челoвека скoрoсть ветра ниже в 1.5-2 раза). Если метеoстанция нахoдится в гoрoде или в лесу, тo скoрoсть ветра занижена на 2-4 м/с пo сравнению с oткрытым местoм. Скoрoсть ветра над акватoриями крупных рек и oзёр, а также на вершинах хoлмoв на 2-5 м/с выше, чем в oбычных услoвиях.
Атмoсфернoе давление в разных тoчках местнoсти мoжет значительнo oтличаться oт давления на метеoстанции, в зависимoсти oт услoвий рельефа (при пoдъёме на 10 м давление пoнижается примернo на 1 мм рт.ст.).